Regional Weather Roundup
Issued by NWS Northern Indiana

Home | Current Version | Previous Version | Text Only | Print | Product List | Glossary On
Versions: 1 2 3 4 5 6 7 8 9 10 11 12 13 14 15 16 17 18 19 20 21 22 23 24 25 26 27 28 29 30 31 32 33 34 35 36 37 38 39 40 41 42 43 44 45 46 47 48 49 50
000
ASUS43 KIWX 281310
RWRIWX

KIWX WEATHER ROUNDUP
NATIONAL WEATHER SERVICE NORTHERN INDIANA
800 AM EST TUE FEB 28 2017

NOTE: "FAIR" INDICATES FEW OR NO CLOUDS BELOW 12,000 FEET WITH NO
SIGNIFICANT WEATHER AND/OR OBSTRUCTIONS TO VISIBILITY.

* THESE STATIONS ARE NOT UNDER NWS QUALITY CONTROL. THEY ALSO MAY NOT
  REPORT WEATHER SUCH AS PRECIPITATION OR FOG.

INZ001>027-281400-
NORTHERN INDIANA

CITY           SKY/WX    TMP DP  RH WIND       PRES   REMARKS
GARY*          CLOUDY    50  45  81 S14       29.87F
VALPARAISO     CLOUDY    48  45  89 S10       29.91F
MICHIGAN CITY* CLOUDY    46  46 100 S9        29.90F
LAPORTE*       CLOUDY    46  44  92 S8        29.92F
KNOX*          CLOUDY    45  32  61 SE17      29.92F
SOUTH BEND     CLOUDY    46  44  93 S13       29.94S
ELKHART*       CLOUDY    46  43  87 S9        29.95S
GOSHEN         CLOUDY    46  42  86 S16G24    29.95F
MONTICELLO*    CLOUDY    46  45  93 SE7       29.93F
LOGANSPORT*    CLOUDY    45  43  93 SE7       29.96F
ROCHESTER*     CLOUDY    46  45  93 SE8       29.95F
WARSAW*        CLOUDY    45  43  93 SE7       29.96F FOG
ANGOLA*        CLOUDY    43  34  70 S10       29.98S
FORT WAYNE     CLOUDY    45  42  89 SE8       30.00F FOG
HUNTINGTON*    LGT RAIN  44  43  96 SE5       29.98F
PERU/GRISSOM   CLOUDY    47  47 100 S10       29.95F
MARION*        CLOUDY    46  45  94 S10       29.99S

$$
INZ028>050-281400-
CENTRAL INDIANA

CITY           SKY/WX    TMP DP  RH WIND       PRES   REMARKS
LAFAYETTE      CLOUDY    48  48 100 S7        29.94S
KOKOMO*        CLOUDY    47  45  93 S14       29.97F
MUNCIE*        CLOUDY    49  46  90 S10G21    29.99F
INDIANAPOLIS   CLOUDY    47  46  97 SE10      29.97F FOG

$$
MIZ043>046-050>051-056>058-064>065-071>073-077>080-281400-
SOUTHWEST LOWER MICHIGAN

CITY           SKY/WX    TMP DP  RH WIND       PRES   REMARKS
BATTLE CREEK   CLOUDY    44  42  93 S16       29.93F
BENTON HARBOR  CLOUDY    48  43  82 S9G18     29.90F
COLDWATER*     CLOUDY    43  43  98 S10       29.97F FOG
HILLSDALE*     CLOUDY    39  39 100 SE10      29.99F FOG
HOLLAND        LGT RAIN  46  42  86 SE12      29.89F
GRAND RAPIDS   LGT RAIN  42  39  89 SE9       29.91F FOG
KALAMAZOO      LGT RAIN  45  41  86 S10       29.93F FOG
STURGIS*       CLOUDY    44  42  94 SE13G20   29.95F
THREE RIVERS*  CLOUDY    45  42  91 S14G20    29.95S FOG

$$
OHZ001>008-015>018-024>025-281400-
NORTHWEST OHIO

CITY           SKY/WX    TMP DP  RH WIND       PRES   REMARKS
WAUSEON*       LGT RAIN  43  41  93 SE13      30.03F
DEFIANCE       LGT RAIN  42  40  92 S7        30.05F
FINDLAY        CLOUDY    43  37  79 SE10      30.07F
TOLEDO EXPRESS LGT RAIN  40  40 100 SE6       30.06F FOG
TOLEDO METCALF LGT RAIN  43  41  93 SE8       30.08R FOG
LIMA           LGT RAIN  45  41  86 SE14      30.05F

$$
AND FOR LAKE MICHIGAN COASTAL AND OPEN LAKE BUOY OBSERVATIONS

STATION/POSITION TEMP    WIND        PRES    VSBY  WAVE
                 AIR SEA DIR/SP/G                  HT/PER
                 (F)     (DEG/KT/KT) (MB)    (MI)  (FT/S)
CALUMET HARBOR    49     160/ 12/ 19 1009.9F
MICHIGAN CITY     48     140/ 13/ 16   N/A
BURNS HARBOR      49     170/ 16/ 22 1012.2F

$$
&&



USA.gov is the U.S. government's official web portal to all federal, state and local government web resources and services.